Weather History for KO22 - May, 2014

Change the Weather History Date:

Sunday, May 11, 2014

  Actual Average (KMOD) Record (KMOD)
Temperature  
Mean Temperature 60 °F -  
Max Temperature 75 °F 82 °F 99 °F (1934)
Min Temperature 44 °F 54 °F 41 °F (1948)
Degree Days  
Heating Degree Days 6 1  
Month to date heating degree days 18  
Since 1 July heating degree days 2152  
Cooling Degree Days 0 4  
Month to date cooling degree days 39  
Year to date cooling degree days 83  
Growing Degree Days 10 (Base 50)    
Moisture  
Dew Point 31 °F    
Average Humidity 35    
Maximum Humidity 71    
Minimum Humidity 24    
Precipitation  
Precipitation 0.00 in 0.02 in 0.35 in (1958)
Month to date precipitation 0.27  
Year to date precipitation 8.27  
Snow  
Snow 0.00 in - - ()
Month to date snowfall  
Since 1 July snowfall  
Snow Depth -    
Sea Level Pressure  
Sea Level Pressure 30.01 in    
Wind  
Wind Speed 7 mph (West)    
Max Wind Speed 15 mph    
Max Gust Speed 23 mph    
Visibility 10 miles    
Events      
T = Trace of Precipitation, MM = Missing Value Source: NWS Daily Summary

Daily Weather History Graph

Daily Weather History Graph

Search for Another Location

Airport or City:

Trip Planner

Search our weather history database for the weather conditions in past years. The results will help you decide how hot, cold, wet, or windy it might be!

Date:

Astronomy

May. 11, 2014 Rise Set
Actual Time 5:54 AM PDT 8:01 PM PDT
Civil Twilight 5:25 AM PDT 8:31 PM PDT
Nautical Twilight 4:49 AM PDT 9:06 PM PDT
Astronomical Twilight 4:11 AM PDT 9:45 PM PDT
Moon 5:05 PM PDT (5/11) 3:59 AM PDT (5/11)
Length of Visible Light 15h 05m
Length of Day
14h 07m
Waxing Gibbous, 90% of the Moon is Illuminated
May 11
Waxing Gibbous
May 14
Full
May 21
Last Quarter
May 28
New
Jun 5
First Quarter

Hourly Weather History & Observations

Time (PDT) Temp. Windchill Dew Point Humidity Pressure Visibility Wind Dir Wind Speed Gust Speed Precip Events Conditions
12:15 AM 53.6 °F - 24.8 °F 33% 30.03 in 10.0 mi North 8.1 mph - N/A   Clear
12:35 AM 53.6 °F - 24.8 °F 33% 30.03 in 10.0 mi NNW 6.9 mph - N/A   Clear
12:55 AM 53.6 °F - 24.8 °F 33% 30.02 in 10.0 mi NNW 8.1 mph 19.6 mph N/A   Clear
1:15 AM 51.8 °F - 24.8 °F 35% 30.02 in 10.0 mi NW 3.5 mph - N/A   Clear
1:35 AM 51.8 °F - 24.8 °F 35% 30.01 in 10.0 mi NNW 4.6 mph - N/A   Clear
1:55 AM 51.8 °F - 23.0 °F 33% 30.01 in 10.0 mi NNW 4.6 mph - N/A   Clear
2:15 AM 51.8 °F - 23.0 °F 33% 30.00 in 10.0 mi North 6.9 mph - N/A   Clear
2:35 AM 53.6 °F - 21.2 °F 28% 30.00 in 10.0 mi North 4.6 mph - N/A   Clear
2:55 AM 51.8 °F - 19.4 °F 28% 29.99 in 10.0 mi North 10.4 mph 17.3 mph N/A   Clear
3:15 AM 53.6 °F - 19.4 °F 26% 29.99 in 10.0 mi North 6.9 mph - N/A   Clear
3:35 AM 53.6 °F - 19.4 °F 26% 30.00 in 10.0 mi North 8.1 mph 16.1 mph N/A   Clear
3:55 AM 50.0 °F - 19.4 °F 30% 30.00 in 10.0 mi NW 4.6 mph - N/A   Clear
4:35 AM 46.4 °F 42.9 °F 23.0 °F 40% 29.99 in 10.0 mi WNW 6.9 mph - N/A   Clear
4:55 AM 46.4 °F 41.9 °F 23.0 °F 40% 29.99 in 10.0 mi West 9.2 mph - N/A   Clear
5:15 AM 48.2 °F - 23.0 °F 37% 29.99 in 10.0 mi West 8.1 mph - N/A   Clear
5:35 AM 48.2 °F - 21.2 °F 34% 29.98 in 10.0 mi WNW 6.9 mph - N/A   Clear
5:55 AM 48.2 °F - 21.2 °F 34% 29.98 in 10.0 mi NW 3.5 mph - N/A   Clear
6:15 AM 48.2 °F - 21.2 °F 34% 29.99 in 10.0 mi WNW 6.9 mph - N/A   Clear
6:35 AM 48.2 °F - 23.0 °F 37% 29.99 in 10.0 mi WNW 4.6 mph - N/A   Clear
6:55 AM 50.0 °F - 23.0 °F 35% 29.99 in 10.0 mi NW 5.8 mph - N/A   Clear
7:15 AM 53.6 °F - 23.0 °F 30% 29.99 in 10.0 mi WNW 4.6 mph - N/A   Clear
7:35 AM 55.4 °F - 23.0 °F 29% 29.99 in 10.0 mi WNW 4.6 mph - N/A   Clear
7:55 AM 57.2 °F - 24.8 °F 29% 30.00 in 10.0 mi West 6.9 mph - N/A   Clear
8:15 AM 59.0 °F - 24.8 °F 27% 30.00 in 10.0 mi NW 6.9 mph - N/A   Clear
8:35 AM 59.0 °F - 24.8 °F 27% 30.01 in 10.0 mi WNW 9.2 mph - N/A   Clear
8:55 AM 60.8 °F - 26.6 °F 27% 30.01 in 10.0 mi WNW 11.5 mph - N/A   Clear
9:15 AM 62.6 °F - 28.4 °F 27% 30.01 in 10.0 mi WNW 11.5 mph 19.6 mph N/A   Clear
9:35 AM 64.4 °F - 28.4 °F 26% 30.01 in 10.0 mi West 10.4 mph - N/A   Clear
9:55 AM 64.4 °F - 28.4 °F 26% 30.01 in 10.0 mi West 10.4 mph 17.3 mph N/A   Clear
10:15 AM 66.2 °F - 32.0 °F 28% 30.01 in 10.0 mi West 10.4 mph 17.3 mph N/A   Clear
10:35 AM 66.2 °F - 32.0 °F 28% 30.01 in 10.0 mi West 10.4 mph 19.6 mph N/A   Clear
10:55 AM 68.0 °F - 32.0 °F 26% 30.02 in 10.0 mi West 9.2 mph - N/A   Clear
11:15 AM 69.8 °F - 33.8 °F 27% 30.01 in 10.0 mi West 12.7 mph 18.4 mph N/A   Clear
11:35 AM 71.6 °F - 33.8 °F 25% 30.01 in 10.0 mi West 10.4 mph 17.3 mph N/A   Clear
11:55 AM 71.6 °F - 35.6 °F 27% 30.01 in 10.0 mi SW 10.4 mph - N/A   Clear
12:15 PM 71.6 °F - 35.6 °F 27% 30.01 in 10.0 mi WSW 10.4 mph 19.6 mph N/A   Clear
12:35 PM 73.4 °F - 35.6 °F 25% 30.00 in 10.0 mi SW 15.0 mph 23.0 mph N/A   Clear
12:55 PM 73.4 °F - 37.4 °F 27% 30.00 in 10.0 mi SSW 9.2 mph 16.1 mph N/A   Clear
1:15 PM 73.4 °F - 37.4 °F 27% 30.00 in 10.0 mi SW 11.5 mph 19.6 mph N/A   Clear
1:35 PM 73.4 °F - 37.4 °F 27% 30.00 in 10.0 mi WSW 12.7 mph 18.4 mph N/A   Clear
1:55 PM 73.4 °F - 39.2 °F 29% 29.99 in 10.0 mi WSW 10.4 mph 19.6 mph N/A   Clear
2:15 PM 73.4 °F - 37.4 °F 27% 29.99 in 10.0 mi WSW 12.7 mph 20.7 mph N/A   Clear
2:55 PM 75.2 °F - 35.6 °F 24% 29.98 in 10.0 mi WSW 10.4 mph 20.7 mph N/A   Clear
3:15 PM 75.2 °F - 37.4 °F 25% 29.98 in 10.0 mi WSW 10.4 mph 16.1 mph N/A   Clear
3:35 PM 75.2 °F - 35.6 °F 24% 29.98 in 10.0 mi WSW 10.4 mph 20.7 mph N/A   Clear
3:55 PM 75.2 °F - 37.4 °F 25% 29.98 in 10.0 mi WSW 11.5 mph 17.3 mph N/A   Clear
4:15 PM 75.2 °F - 37.4 °F 25% 29.98 in 10.0 mi West 10.4 mph 23.0 mph N/A   Clear
4:35 PM 75.2 °F - 35.6 °F 24% 29.99 in 10.0 mi WSW 10.4 mph 18.4 mph N/A   Clear
4:55 PM 73.4 °F - 35.6 °F 25% 29.99 in 10.0 mi WSW 11.5 mph - N/A   Clear
5:35 PM 73.4 °F - 37.4 °F 27% 29.99 in 10.0 mi WSW 8.1 mph - N/A   Clear
5:55 PM 71.6 °F - 37.4 °F 29% 29.99 in 10.0 mi WSW 5.8 mph - N/A   Clear
6:15 PM 71.6 °F - 35.6 °F 27% 29.99 in 10.0 mi WSW 6.9 mph - N/A   Clear
6:35 PM 69.8 °F - 37.4 °F 31% 29.99 in 10.0 mi WSW 6.9 mph - N/A   Clear
6:55 PM 68.0 °F - 37.4 °F 33% 30.00 in 10.0 mi WSW 9.2 mph - N/A   Clear
7:15 PM 66.2 °F - 35.6 °F 32% 30.01 in 10.0 mi WSW 5.8 mph - N/A   Clear
7:35 PM 64.4 °F - 35.6 °F 34% 30.01 in 10.0 mi WSW 3.5 mph - N/A   Clear
7:55 PM 62.6 °F - 35.6 °F 37% 30.02 in 10.0 mi Calm Calm - N/A   Clear
8:15 PM 59.0 °F - 37.4 °F 45% 30.03 in 10.0 mi Calm Calm - N/A   Clear
8:35 PM 57.2 °F - 39.2 °F 51% 30.03 in 10.0 mi NNE 3.5 mph - N/A   Clear
8:55 PM 55.4 °F - 39.2 °F 54% 30.04 in 10.0 mi ENE 3.5 mph - N/A   Clear
9:15 PM 51.8 °F - 39.2 °F 62% 30.04 in 10.0 mi Calm Calm - N/A   Clear
9:35 PM 51.8 °F - 39.2 °F 62% 30.04 in 10.0 mi Calm Calm - N/A   Clear
9:55 PM 51.8 °F - 39.2 °F 62% 30.05 in 10.0 mi Calm Calm - N/A   Clear
10:15 PM 50.0 °F - 39.2 °F 66% 30.05 in 10.0 mi Calm Calm - N/A   Clear
10:35 PM 48.2 °F - 37.4 °F 66% 30.06 in 10.0 mi Calm Calm - N/A   Clear
10:55 PM 48.2 °F - 37.4 °F 66% 30.06 in 10.0 mi Calm Calm - N/A   Clear
11:15 PM 46.4 °F - 35.6 °F 66% 30.07 in 10.0 mi Calm Calm - N/A   Clear
11:35 PM 44.6 °F - 35.6 °F 71% 30.07 in 10.0 mi Calm Calm - N/A   Clear
11:55 PM 46.4 °F - 32.0 °F 57% 30.07 in 10.0 mi Calm Calm - N/A   Clear